| time (UTC) | temp F | wind direction | speed MPH | gust MPH | rain 1hr in | rain 24hr in | rain mn in | humidity % | barometer mb |
| 20260505000218 | 68 | 289 | 2.0 | 6.0 | 0.00 | 0.00 | 0.00 | 33 | 1012.9 |
| 20260504235403 | 67 | 301 | 2.0 | 12.0 | 0.00 | 0.00 | 0.00 | 33 | 1013.2 |
| 20260504234503 | 67 | 40 | 2.0 | 12.0 | 0.00 | 0.00 | 0.00 | 32 | 1013.2 |
| 20260504233603 | 68 | 294 | 1.0 | 4.0 | 0.00 | 0.00 | 0.00 | 32 | 1013.2 |
| 20260504232703 | 68 | 356 | 2.0 | 9.0 | 0.00 | 0.00 | 0.00 | 33 | 1013.2 |
| 20260504231803 | 68 | 352 | 3.0 | 17.0 | 0.00 | 0.00 | 0.00 | 33 | 1013.4 |
| 20260504230903 | 67 | 7 | 2.0 | 7.0 | 0.00 | 0.00 | 0.00 | 34 | 1013.3 |
| 20260504230003 | 66 | 218 | 1.0 | 4.0 | 0.00 | 0.00 | 0.00 | 34 | 1013.5 |
| 20260504225403 | 67 | 338 | 2.0 | 9.0 | 0.00 | 0.00 | 0.00 | 34 | 1013.5 |
| 20260504224503 | 68 | 353 | 2.0 | 6.0 | 0.00 | 0.00 | 0.00 | 33 | 1013.3 |
| 20260504223603 | 68 | 14 | 4.0 | 12.0 | 0.00 | 0.00 | 0.00 | 33 | 1013.4 |
| 20260504222703 | 69 | 328 | 2.0 | 9.0 | 0.00 | 0.00 | 0.00 | 33 | 1013.7 |
| 20260504221803 | 69 | 339 | 2.0 | 9.0 | 0.00 | 0.00 | 0.00 | 32 | 1013.5 |
| 20260504220903 | 68 | 324 | 2.0 | 9.0 | 0.00 | 0.00 | 0.00 | 33 | 1013.8 |
| 20260504220003 | 69 | 13 | 3.0 | 9.0 | 0.00 | 0.00 | 0.00 | 32 | 1013.7 |
| 20260504215403 | 69 | 329 | 2.0 | 8.0 | 0.00 | 0.00 | 0.00 | 32 | 1013.9 |
| 20260504214503 | 68 | 303 | 2.0 | 5.0 | 0.00 | 0.00 | 0.00 | 34 | 1014.0 |
| 20260504213603 | 67 | 360 | 3.0 | 12.0 | 0.00 | 0.00 | 0.00 | 35 | 1013.8 |
| 20260504212703 | 67 | 23 | 3.0 | 12.0 | 0.00 | 0.00 | 0.00 | 32 | 1013.9 |
| 20260504211803 | 67 | 111 | 3.0 | 9.0 | 0.00 | 0.00 | 0.00 | 33 | 1013.9 |
| 20260504210903 | 67 | 19 | 4.0 | 11.0 | 0.00 | 0.00 | 0.00 | 34 | 1014.1 |
| 20260504210004 | 67 | 12 | 3.0 | 11.0 | 0.00 | 0.00 | 0.00 | 35 | 1013.8 |
| 20260504205403 | 67 | 279 | 2.0 | 9.0 | 0.00 | 0.00 | 0.00 | 34 | 1013.9 |
| 20260504204503 | 67 | 43 | 3.0 | 10.0 | 0.00 | 0.00 | 0.00 | 34 | 1014.0 |
| 20260504203603 | 67 | 18 | 3.0 | 15.0 | 0.00 | 0.00 | 0.00 | 34 | 1014.2 |
| 20260504202703 | 67 | 360 | 2.0 | 9.0 | 0.00 | 0.00 | 0.00 | 34 | 1014.3 |
| 20260504201803 | 67 | 26 | 3.0 | 10.0 | 0.00 | 0.00 | 0.00 | 35 | 1014.0 |
| 20260504200903 | 67 | 358 | 3.0 | 11.0 | 0.00 | 0.00 | 0.00 | 36 | 1014.3 |
| 20260504200003 | 67 | 11 | 2.0 | 7.0 | 0.00 | 0.00 | 0.00 | 36 | 1014.4 |
| 20260504195616 | 66 | 18 | 2.0 | 8.0 | 0.00 | 0.00 | 0.00 | 36 | 1014.7 |
| 20260504194503 | 66 | 1 | 3.0 | 10.0 | 0.00 | 0.00 | 0.00 | 36 | 1014.4 |
| 20260504193603 | 65 | 2 | 3.0 | 11.0 | 0.00 | 0.00 | 0.00 | 37 | 1014.3 |
| 20260504192916 | 65 | 10 | 3.0 | 11.0 | 0.00 | 0.00 | 0.00 | 36 | 1014.2 |
| 20260504192018 | 65 | 6 | 3.0 | 12.0 | 0.00 | 0.00 | 0.00 | 38 | 1014.4 |
| 20260504190903 | 65 | 14 | 3.0 | 11.0 | 0.00 | 0.00 | 0.00 | 35 | 1014.6 |
| 20260504190003 | 65 | 13 | 3.0 | 8.0 | 0.00 | 0.00 | 0.00 | 37 | 1014.6 |
| 20260504185618 | 64 | 1 | 3.0 | 11.0 | 0.00 | 0.00 | 0.00 | 38 | 1014.7 |
| 20260504184718 | 64 | 312 | 3.0 | 11.0 | 0.00 | 0.00 | 0.00 | 36 | 1014.4 |
| 20260504183817 | 64 | 5 | 2.0 | 9.0 | 0.00 | 0.00 | 0.00 | 37 | 1014.6 |
| 20260504182918 | 64 | 9 | 2.0 | 15.0 | 0.00 | 0.00 | 0.00 | 38 | 1014.3 |
| 20260504181803 | 63 | 357 | 3.0 | 11.0 | 0.00 | 0.00 | 0.00 | 38 | 1014.7 |
| 20260504180903 | 63 | 9 | 5.0 | 18.0 | 0.00 | 0.00 | 0.00 | 37 | 1014.4 |
| 20260504180003 | 63 | 351 | 3.0 | 14.0 | 0.00 | 0.00 | 0.00 | 37 | 1014.6 |
| 20260504175618 | 63 | 353 | 2.0 | 14.0 | 0.00 | 0.00 | 0.00 | 39 | 1014.6 |
| 20260504174717 | 62 | 259 | 2.0 | 6.0 | 0.00 | 0.00 | 0.00 | 41 | 1014.7 |
| 20260504173603 | 62 | 340 | 3.0 | 11.0 | 0.00 | 0.00 | 0.00 | 41 | 1014.7 |
| 20260504172703 | 62 | 325 | 2.0 | 10.0 | 0.00 | 0.00 | 0.00 | 42 | 1014.8 |
| 20260504171803 | 61 | 336 | 2.0 | 7.0 | 0.00 | 0.00 | 0.00 | 45 | 1014.8 |
| 20260504170903 | 60 | 247 | 1.0 | 4.0 | 0.00 | 0.00 | 0.00 | 49 | 1014.6 |
| 20260504150903 | 52 | 283 | 1.0 | 5.0 | 0.00 | 0.00 | 0.00 | 59 | 1015.1 |
| 20260504140903 | 47 | 282 | 0.0 | 3.0 | 0.00 | 0.00 | 0.00 | 73 | 1015.1 |
| 20260504081803 | 45 | 6 | 0.0 | 2.0 | 0.00 | 0.00 | 0.00 | 66 | 1014.6 |
| 20260504080903 | 45 | 357 | 1.0 | 2.0 | 0.00 | 0.00 | 0.00 | 67 | 1014.8 |
| 20260504050003 | 50 | 17 | 0.0 | 2.0 | 0.00 | 0.00 | 0.00 | 54 | 1015.1 |
| 20260504045617 | 50 | 21 | 0.0 | 2.0 | 0.00 | 0.00 | 0.00 | 54 | 1014.7 |
| 20260504044503 | 51 | 11 | 0.0 | 1.0 | 0.00 | 0.00 | 0.00 | 53 | 1014.9 |
| 20260504043603 | 51 | 283 | 0.0 | 1.0 | 0.00 | 0.00 | 0.00 | 52 | 1015.1 |
| 20260504042917 | 51 | 22 | 0.0 | 2.0 | 0.00 | 0.00 | 0.00 | 51 | 1015.0 |
| 20260504041803 | 52 | 251 | 0.0 | 1.0 | 0.00 | 0.00 | 0.00 | 51 | 1015.0 |
| 20260504040903 | 53 | 70 | 0.0 | 2.0 | 0.00 | 0.00 | 0.00 | 51 | 1014.9 |
| 20260504040217 | 53 | 45 | 0.0 | 2.0 | 0.00 | 0.00 | 0.00 | 50 | 1014.8 |
| 20260504035403 | 54 | 268 | 0.0 | 2.0 | 0.00 | 0.00 | 0.00 | 49 | 1014.7 |
| 20260504034718 | 54 | 301 | 0.0 | 3.0 | 0.00 | 0.00 | 0.00 | 49 | 1015.0 |
| 20260504033603 | 56 | 13 | 0.0 | 2.0 | 0.00 | 0.00 | 0.00 | 47 | 1014.7 |
| 20260504032703 | 57 | 256 | 0.0 | 1.0 | 0.00 | 0.00 | 0.00 | 46 | 1014.9 |
| 20260504031803 | 58 | 246 | 0.0 | 2.0 | 0.00 | 0.00 | 0.00 | 44 | 1014.4 |
| 20260504030903 | 59 | 92 | 0.0 | 2.0 | 0.00 | 0.00 | 0.00 | 42 | 1014.8 |
| 20260504030003 | 60 | 8 | 0.0 | 3.0 | 0.00 | 0.00 | 0.00 | 41 | 1014.6 |
| 20260504025403 | 60 | 16 | 0.0 | 3.0 | 0.00 | 0.00 | 0.00 | 41 | 1014.7 |
| 20260504024503 | 62 | 284 | 0.0 | 2.0 | 0.00 | 0.00 | 0.00 | 40 | 1014.6 |
| 20260504023603 | 62 | 239 | 0.0 | 3.0 | 0.00 | 0.00 | 0.00 | 38 | 1014.6 |
| 20260504022703 | 63 | 241 | 0.0 | 2.0 | 0.00 | 0.00 | 0.00 | 37 | 1014.6 |
| 20260504021803 | 64 | 270 | 1.0 | 5.0 | 0.00 | 0.00 | 0.00 | 35 | 1014.7 |
| 20260504020903 | 65 | 284 | 1.0 | 10.0 | 0.00 | 0.00 | 0.00 | 35 | 1014.7 |
| 20260504020003 | 65 | 296 | 2.0 | 10.0 | 0.00 | 0.00 | 0.00 | 34 | 1014.7 |
| 20260504015403 | 65 | 289 | 2.0 | 6.0 | 0.00 | 0.00 | 0.00 | 34 | 1014.9 |
| 20260504014503 | 65 | 295 | 1.0 | 5.0 | 0.00 | 0.00 | 0.00 | 34 | 1014.9 |
| 20260504013816 | 66 | 315 | 1.0 | 10.0 | 0.00 | 0.00 | 0.00 | 34 | 1014.8 |
| 20260504012703 | 66 | 281 | 1.0 | 3.0 | 0.00 | 0.00 | 0.00 | 33 | 1014.9 |
| 20260504011803 | 66 | 301 | 1.0 | 6.0 | 0.00 | 0.00 | 0.00 | 33 | 1015.0 |
| 20260504010903 | 67 | 306 | 1.0 | 9.0 | 0.00 | 0.00 | 0.00 | 32 | 1015.1 |
| 20260504010003 | 67 | 301 | 1.0 | 6.0 | 0.00 | 0.00 | 0.00 | 31 | 1015.0 |
| 20260504005403 | 67 | 295 | 2.0 | 7.0 | 0.00 | 0.00 | 0.00 | 31 | 1015.0 |
| 20260504004503 | 67 | 296 | 2.0 | 5.0 | 0.00 | 0.00 | 0.00 | 31 | 1015.1 |
| 20260504003603 | 67 | 310 | 2.0 | 9.0 | 0.00 | 0.00 | 0.00 | 30 | 1015.1 |
| 20260504002703 | 68 | 272 | 2.0 | 7.0 | 0.00 | 0.00 | 0.00 | 31 | 1015.3 |
| 20260504002017 | 68 | 273 | 2.0 | 6.0 | 0.00 | 0.00 | 0.00 | 30 | 1015.3 |
| 20260504000903 | 68 | 321 | 2.0 | 10.0 | 0.00 | 0.00 | 0.00 | 30 | 1015.5 |